• In Latvia
  • List of Countries
  • For 7 days
  • Water Temperature
  • Satellite Maps
  • Weather Map
  • Weather Widgets
  • user-avatar
    Login

    Hourly Weather Recife

    Today, 24 June, Sunday

    Time Temperature Precipitation Wind Pressure Humidity
    00:00 +25°C° 0.1 mm 4 mps 760 mmHg 83%
    01:00 +25°C° 0.1 mm 4 mps 760 mmHg 84%
    02:00 +25°C° 0.2 mm 5 mps 760 mmHg 86%
    03:00 +25°C° 0.2 mm 5 mps 760 mmHg 87%
    04:00 +25°C° 0 mm 5 mps 759 mmHg 88%
    05:00 +25°C° 0.4 mm 5 mps 759 mmHg 89%
    06:00 +25°C° 0.4 mm 5 mps 759 mmHg 89%
    07:00 +26°C° 0.4 mm 5 mps 760 mmHg 89%
    08:00 +27°C° 0.4 mm 6 mps 760 mmHg 85%
    09:00 +27°C° 0.4 mm 6 mps 760 mmHg 81%
    10:00 +28°C° 0.4 mm 7 mps 760 mmHg 77%
    11:00 +29°C° 0.3 mm 7 mps 760 mmHg 74%
    12:00 +29°C° 0.3 mm 7 mps 760 mmHg 71%
    13:00 +30°C° 0.3 mm 7 mps 760 mmHg 68%
    14:00 +30°C° 0.1 mm 7 mps 760 mmHg 68%
    15:00 +30°C° 0.1 mm 7 mps 759 mmHg 68%
    16:00 +29°C° 0.1 mm 7 mps 759 mmHg 68%
    17:00 +28°C° 0.1 mm 6 mps 759 mmHg 72%
    18:00 +27°C° 0.1 mm 6 mps 759 mmHg 76%
    19:00 +26°C° 0.1 mm 5 mps 759 mmHg 80%
    20:00 +26°C° 0 mm 5 mps 760 mmHg 81%
    21:00 +26°C° 0 mm 5 mps 760 mmHg 81%
    22:00 +25°C° 0 mm 5 mps 760 mmHg 82%
    23:00 +25°C° 0 mm 5 mps 760 mmHg 82%

    Tomorrow, 25 June, Monday

    Time Temperature Precipitation Wind Pressure Humidity
    00:00 +25°C° 0 mm 4 mps 760 mmHg 82%
    01:00 +25°C° 0 mm 4 mps 760 mmHg 82%
    02:00 +25°C° 0.2 mm 4 mps 760 mmHg 83%
    03:00 +25°C° 0.2 mm 4 mps 759 mmHg 84%
    04:00 +25°C° 0.2 mm 4 mps 759 mmHg 85%
    05:00 +25°C° 0.3 mm 4 mps 759 mmHg 86%
    06:00 +25°C° 0.3 mm 4 mps 759 mmHg 86%
    07:00 +25°C° 0.3 mm 5 mps 759 mmHg 87%
    08:00 +26°C° 0.3 mm 5 mps 760 mmHg 82%
    09:00 +28°C° 0.3 mm 5 mps 760 mmHg 76%
    10:00 +29°C° 0.3 mm 6 mps 761 mmHg 71%
    11:00 +29°C° 0.2 mm 6 mps 761 mmHg 68%
    12:00 +30°C° 0.2 mm 6 mps 760 mmHg 65%
    13:00 +30°C° 0.2 mm 6 mps 760 mmHg 61%
    14:00 +30°C° 0.1 mm 6 mps 760 mmHg 62%
    15:00 +30°C° 0.1 mm 6 mps 759 mmHg 63%
    16:00 +30°C° 0.1 mm 6 mps 759 mmHg 64%
    17:00 +29°C° 0 mm 5 mps 759 mmHg 69%
    18:00 +27°C° 0 mm 5 mps 759 mmHg 74%
    19:00 +26°C° 0 mm 4 mps 759 mmHg 80%
    20:00 +26°C° 0 mm 4 mps 759 mmHg 81%
    21:00 +26°C° 0 mm 4 mps 760 mmHg 82%
    22:00 +26°C° 0 mm 4 mps 760 mmHg 84%
    23:00 +25°C° 0.1 mm 4 mps 760 mmHg 85%

    Day after tomorrow, 26 June, Tuesday

    Time Temperature Precipitation Wind Pressure Humidity
    00:00 +25°C° 0.1 mm 4 mps 760 mmHg 86%
    01:00 +25°C° 0.1 mm 4 mps 760 mmHg 87%
    02:00 +25°C° 0.1 mm 4 mps 759 mmHg 87%
    03:00 +25°C° 0.1 mm 4 mps 759 mmHg 88%
    04:00 +25°C° 0.1 mm 4 mps 758 mmHg 89%
    05:00 +25°C° 0.1 mm 4 mps 759 mmHg 89%
    06:00 +25°C° 0.1 mm 4 mps 759 mmHg 89%
    07:00 +25°C° 0.1 mm 4 mps 759 mmHg 89%
    08:00 +26°C° 0.2 mm 4 mps 759 mmHg 83%
    09:00 +27°C° 0.2 mm 5 mps 760 mmHg 77%
    10:00 +29°C° 0.2 mm 5 mps 760 mmHg 71%
    11:00 +28°C° 0.3 mm 5 mps 760 mmHg 73%
    12:00 +28°C° 0.3 mm 5 mps 760 mmHg 75%
    13:00 +28°C° 0.3 mm 5 mps 759 mmHg 77%
    14:00 +28°C° 0.1 mm 5 mps 759 mmHg 77%
    15:00 +28°C° 0.1 mm 5 mps 759 mmHg 77%
    16:00 +27°C° 0.1 mm 5 mps 758 mmHg 77%
    17:00 +27°C° 0.1 mm 4 mps 759 mmHg 79%
    18:00 +26°C° 0.1 mm 4 mps 759 mmHg 81%
    19:00 +26°C° 0.1 mm 4 mps 759 mmHg 84%
    20:00 +26°C° 0.1 mm 4 mps 760 mmHg 84%
    21:00 +26°C° 0.1 mm 4 mps 760 mmHg 85%
    22:00 +25°C° 0.1 mm 4 mps 761 mmHg 86%
    23:00 +25°C° 0.3 mm 4 mps 760 mmHg 87%

    27 June, Wednesday

    Time Temperature Precipitation Wind Pressure Humidity
    00:00 +25°C° 0.3 mm 4 mps 760 mmHg 87%
    01:00 +25°C° 0.3 mm 4 mps 760 mmHg 88%
    02:00 +25°C° 0.3 mm 4 mps 759 mmHg 89%
    03:00 +25°C° 0.3 mm 4 mps 759 mmHg 89%
    04:00 +23°C° 0.3 mm 4 mps 759 mmHg 90%
    05:00 +23°C° 0.3 mm 4 mps 759 mmHg 90%
    06:00 +23°C° 0.3 mm 4 mps 760 mmHg 90%
    07:00 +23°C° 0.3 mm 4 mps 760 mmHg 90%
    08:00 +25°C° 0.4 mm 4 mps 760 mmHg 86%
    09:00 +26°C° 0.4 mm 4 mps 761 mmHg 82%
    10:00 +27°C° 0.4 mm 4 mps 761 mmHg 79%
    11:00 +28°C° 0.3 mm 4 mps 761 mmHg 76%
    12:00 +28°C° 0.3 mm 4 mps 760 mmHg 74%
    13:00 +29°C° 0.3 mm 4 mps 760 mmHg 71%
    14:00 +29°C° 0.1 mm 5 mps 760 mmHg 70%
    15:00 +29°C° 0.1 mm 5 mps 759 mmHg 68%
    16:00 +29°C° 0.1 mm 5 mps 759 mmHg 67%
    17:00 +28°C° 0.1 mm 5 mps 759 mmHg 72%
    18:00 +27°C° 0.1 mm 5 mps 759 mmHg 77%
    19:00 +26°C° 0.1 mm 4 mps 760 mmHg 83%
    20:00 +26°C° 0.2 mm 4 mps 760 mmHg 84%
    21:00 +26°C° 0.2 mm 4 mps 760 mmHg 86%
    22:00 +25°C° 0.2 mm 4 mps 761 mmHg 88%
    23:00 +25°C° 0.2 mm 4 mps 761 mmHg 88%

    28 June, Thursday

    Time Temperature Precipitation Wind Pressure Humidity
    00:00 +25°C° 0.2 mm 4 mps 760 mmHg 89%
    01:00 +25°C° 0.2 mm 4 mps 760 mmHg 89%
    02:00 +25°C° 0.2 mm 4 mps 760 mmHg 89%
    03:00 +25°C° 0.2 mm 4 mps 759 mmHg 89%
    04:00 +25°C° 0.2 mm 4 mps 759 mmHg 89%
    05:00 +25°C° 0.2 mm 4 mps 760 mmHg 89%
    06:00 +25°C° 0.2 mm 4 mps 760 mmHg 89%
    07:00 +25°C° 0.2 mm 4 mps 760 mmHg 88%
    08:00 +26°C° 0.2 mm 4 mps 761 mmHg 83%
    09:00 +28°C° 0.2 mm 5 mps 761 mmHg 77%
    10:00 +29°C° 0.2 mm 5 mps 761 mmHg 71%
    11:00 +29°C° 0.3 mm 5 mps 761 mmHg 68%
    12:00 +30°C° 0.3 mm 5 mps 760 mmHg 66%
    13:00 +30°C° 0.3 mm 6 mps 760 mmHg 64%
    14:00 +30°C° 0.2 mm 6 mps 759 mmHg 65%
    15:00 +30°C° 0.2 mm 6 mps 759 mmHg 66%
    16:00 +29°C° 0.2 mm 6 mps 759 mmHg 67%
    17:00 +28°C° 0.1 mm 6 mps 759 mmHg 72%
    18:00 +27°C° 0.1 mm 5 mps 759 mmHg 77%
    19:00 +26°C° 0.1 mm 5 mps 760 mmHg 82%
    20:00 +26°C° 0.3 mm 5 mps 760 mmHg 83%
    21:00 +25°C° 0.3 mm 5 mps 760 mmHg 85%
    22:00 +25°C° 0.3 mm 5 mps 761 mmHg 87%
    23:00 +25°C° 0.2 mm 5 mps 760 mmHg 87%

    29 June, Friday

    Time Temperature Precipitation Wind Pressure Humidity
    00:00 +25°C° 0.2 mm 5 mps 760 mmHg 88%
    01:00 +25°C° 0.2 mm 5 mps 760 mmHg 88%
    02:00 +25°C° 0.2 mm 5 mps 759 mmHg 88%
    03:00 +25°C° 0.2 mm 5 mps 759 mmHg 88%
    04:00 +25°C° 0.2 mm 5 mps 759 mmHg 88%
    05:00 +25°C° 0.1 mm 5 mps 759 mmHg 88%
    06:00 +25°C° 0.1 mm 5 mps 760 mmHg 87%
    07:00 +25°C° 0.1 mm 5 mps 760 mmHg 86%
    08:00 +26°C° 0.1 mm 5 mps 760 mmHg 79%
    09:00 +28°C° 0.1 mm 6 mps 760 mmHg 72%
    10:00 +29°C° 0.1 mm 6 mps 761 mmHg 65%
    11:00 +29°C° 0.1 mm 6 mps 760 mmHg 63%
    12:00 +30°C° 0.1 mm 6 mps 760 mmHg 61%
    13:00 +30°C° 0.1 mm 6 mps 760 mmHg 59%
    14:00 +30°C° 0 mm 6 mps 759 mmHg 60%
    15:00 +30°C° 0 mm 6 mps 759 mmHg 62%
    16:00 +30°C° 0 mm 6 mps 759 mmHg 64%
    17:00 +28°C° 0 mm 5 mps 759 mmHg 68%
    18:00 +27°C° 0 mm 5 mps 759 mmHg 73%
    19:00 +26°C° 0 mm 5 mps 759 mmHg 77%
    20:00 +26°C° 0 mm 4 mps 760 mmHg 79%
    21:00 +26°C° 0 mm 4 mps 760 mmHg 81%
    22:00 +25°C° 0 mm 4 mps 760 mmHg 83%
    23:00 +25°C° 0.1 mm 4 mps 760 mmHg 85%
    Show more